Regional Weather Roundup
Issued by NWS

Home | Current Version | Previous Version | Graphics & Text | Print | Product List | Glossary Off
Versions: 1 2 3 4 5 6 7 8 9 10 11 12 13 14 15 16 17 18 19 20 21 22 23 24 25 26 27 28 29 30 31 32 33 34 35 36 37 38 39 40 41 42 43 44 45 46 47 48 49 50

000
ASUS43 KFSD 260110
RWRSD

WEATHER ROUNDUP FOR SOUTH DAKOTA
NATIONAL WEATHER SERVICE SIOUX FALLS SD
700 PM CST SUN JAN 25 2015

NOTE: "FAIR" INDICATES FEW OR NO CLOUDS BELOW 12,000 FEET WITH NO
SIGNIFICANT WEATHER AND/OR OBSTRUCTIONS TO VISIBILITY.


SDZ001>005-009-010-012>017-260200-
NORTHWEST AND NORTH CENTRAL SOUTH DAKOTA

CITY           SKY/WX    TMP DP  RH WIND       PRES   REMARKS
BUFFALO          N/A     41  33  73 W12       29.86R
FAITH            N/A     39  26  59 S13       29.92S
MOBRIDGE       CLOUDY    36  30  79 SE8       29.89F
$$

SDZ012>016-024>037-041>051-057-063-072>074-260200-
SOUTHWEST AND SOUTH CENTRAL SOUTH DAKOTA

CITY           SKY/WX    TMP DP  RH WIND       PRES   REMARKS
RAPID CTY ARPT PTCLDY    36  22  56 CALM      29.95S
PIERRE         CLOUDY    37  29  72 S7        29.94F
CUSTER         CLEAR     40  30  67 W8        30.01R
ELLSWORTH AFB  PTCLDY    39  23  51 CALM      29.95R
PHILIP         PTCLDY    40  23  50 W3        29.96R
PINE RIDGE     CLOUDY    43  32  65 SW7       30.00R
WINNER         FAIR      36  28  73 S6        30.00S
$$

SDZ004>011-016>023-039-040-260200-
NORTHEAST SOUTH DAKOTA

CITY           SKY/WX    TMP DP  RH WIND       PRES   REMARKS
ABERDEEN       CLOUDY    32  29  88 S7        29.97F WCI  26
WATERTOWN      CLOUDY    30  27  88 SW6       29.98R WCI  24
SISSETON         N/A     24  21  88 S7        29.99R WCI  16
$$

SDZ017-020-022-023-036>040-048>070-260200-
SOUTHEAST SOUTH DAKOTA

CITY           SKY/WX    TMP DP  RH WIND       PRES   REMARKS
SIOUX FALLS    CLOUDY    33  30  88 W7        30.03R WCI  27
HURON          CLOUDY    33  30  88 S7        30.00F WCI  27
CHAMBERLAIN    MOCLDY    30  28  92 S6        29.99F WCI  24
MITCHELL       CLOUDY    35  31  85 S3        30.03R
YANKTON        CLOUDY    36  30  80 CALM      30.05F
$$

ABBREVIATIONS USED IN REMARKS
   TC - TEMPERATURE IN CELSIUS
  WCI - WIND CHILL INDEX
   HX - HEAT INDEX
  VSB - VISIBILITY



USA.gov is the U.S. government's official web portal to all federal, state and local government web resources and services.